C/2006 L1 ( Garradd )

Japanese version
Home page
Updated on April 21, 2007

---------------------------------------------------------------------

* Profile

Discovery Date June 4, 2006
Magnitude 17.9 mag
Discoverer Gordon J. Garradd (Siding Spring Survey)

* Pictures

* Orbital Elements

The following orbital elements are taken from MPC 58538:

Epoch 2006 Nov. 1.0 TT = JDT 2454040.5
T 2006 Oct. 18.0025 TT                                  MPC
q   1.462071             (2000.0)            P               Q
z  +0.001827       Peri.  338.4098      -0.4781317      +0.6543288
 +/-0.000003       Node   101.7602      +0.8676676      +0.2484795
e   0.997329       Incl.  143.2423      +0.1361731      +0.7142211
From 477 observations 2006 June 4-2007 Jan. 3, mean residual 0".6.

* Finding Charts

* Magnitudes Graph

        m1 = 4.0 + 5 log d + 30.0 log r(t - 20)

---------------------------------------------------------------------

The orbital elements are published at the MPC Ephemerides and Orbital Elements.
The charts are made with StellaNavigator Ver.2.0 for Windows (AstroArts / ASCII).
The magnitudes graphs are made with Comet for Windows.

---------------------------------------------------------------------

Copyright(C) Seiichi Yoshida (comet@aerith.net). All rights reserved.